Location: Rumah Long Bangan
(2.8362°N, 113.7519°E)
Time: 18:39:44
(UTC+00:00)

Nadezhda 3 Rocket - Pass Details

Date: 24 October 2021
Orbit: 957 x 998 km, 82.9° (Epoch: 07 December)

Event Time Altitude Azimuth Distance (km) Brightness Sun altitude
Rises 20:45:21 0° 185° (S) 3,649 7.1 -21.1°
Reaches altitude 10° 20:47:52 10° 186° (S) 2,697 6.4 -20.5°
Maximum altitude 20:54:02 81° 273° (W) 972 3.8 -18.9°
Drops below altitude 10° 21:00:09 10° 0° (N) 2,678 6.2 -17.5°
Sets 21:02:38 0° 1° (N) 3,622 6.9 -16.8°
